"Pseudo-MPEC" for P12pEuR

Created 2026 Sep 5 11:35:10 UT using Find_Orb

Click here for an explanation of pseudo-MPECs

 
 Astrometry: 
     P12pEuR*0C2026 09 05.30400021 24 30.023-27 42 23.30   ~959o 20.07wXNEOCPF51
     P12pEuR 0C2026 09 05.31309121 24 32.568-27 44 54.03   ~959o 20.10wXNEOCPF51
     P12pEuR 0C2026 09 05.32219321 24 35.088-27 47 24.40   ~959o 20.14wXNEOCPF51
     P12pEuR 0C2026 09 05.33128121 24 37.621-27 49 54.85   ~959o 20.25wXNEOCPF51

Station data:
(F51) Pan-STARRS 1, Haleakala  (N20.707234 W156.255910)  US/Hawaii.
   Observers J. Herman, T. Lowe, P. Minguez, A. Schultz, I. Smith. Measurers
   K. Chambers, T. de Boer, J. Fairlamb, H. Gao, M. Huber, C.-C. Lin, E.
   Magnier, Y. Ramanjooloo, R. Wainscoat, R. Weryk. 1.8-m Ritchey-Chrétien +
   CCD.

Orbital elements:  P12pEuR
   Perihelion 2026 Jul 11.413523 +/- 45.9 TT =  9:55:28.4 (JD 2461232.913523)
Epoch 2026 Sep  5.0 TT = JDT 2461288.5   Earth MOID: 0.0441   Ve: 0.0663
M  22.256010728 +/- 35              (J2000 ecliptic)             AutoNEOCP
n   0.400385346 +/- 0.36            Peri.   80.005635 +/- 60
a   1.823128440 +/- 1.09            Node   159.036942 +/- 1.8
e   0.69404313 +/- 0.277            Incl.   47.323116 +/- 16
P   2.462/899.117d         H 23.59  G  0.15   U 12.1  SR
q 0.557798664 +/- 0.212    Q 3.088458216 +/- 28.3
From 4 observations 2026 Sept. 5 (39.3 min); mean residual 0".18
Residuals in arcseconds: 
260905 F51  .01+  .19-    260905 F51  .13-  .36+    
260905 F51  .05+  .10+    260905 F51  .07+  .27-    

Ephemerides (geocentric):
Date (UTC) HH   RA             Dec           delta  r     elong  mag " sig PA
---- --------  ------------   ------------  ------ ------ -----  --- --------
2026 09 05 12  21 25 28.137   -28 33 41.59  .10300 1.0983 149.6 20.1  146 143
2026 09 05 13  21 25 40.677   -28 44 23.57  .10369 1.0988 149.4 20.1  170 137
2026 09 05 14  21 25 53.099   -28 54 56.89  .10438 1.0993 149.3 20.1  195 134
2026 09 05 15  21 26 05.405   -29 05 21.71  .10507 1.0998 149.2 20.1  221 132
2026 09 05 16  21 26 17.596   -29 15 38.19  .10577 1.1003 149.1 20.2  248 135
2026 09 05 17  21 26 29.675   -29 25 46.47  .10646 1.1008 149.0 20.2  282 177
2026 09 05 18  21 26 41.642   -29 35 46.70  .10716 1.1013 148.9 20.2  346  24
2026 09 05 19  21 26 53.500   -29 45 39.03  .10786 1.1018 148.7 20.2  419  27
2026 09 05 20  21 27 05.249   -29 55 23.59  .10856 1.1023 148.6 20.2  499  27
2026 09 05 21  21 27 16.892   -30 05 00.52  .10926 1.1028 148.5 20.3  587  27
2026 09 05 22  21 27 28.430   -30 14 29.97  .10996 1.1033 148.4 20.3  682  27
2026 09 05 23  21 27 39.865   -30 23 52.06  .11066 1.1038 148.3 20.3  784  26
2026 09 06 00  21 27 51.198   -30 33 06.91  .11136 1.1043 148.2 20.3  894  26
2026 09 06 01  21 28 02.430   -30 42 14.67  .11207 1.1048 148.1 20.3 1012  26
2026 09 06 02  21 28 13.562   -30 51 15.44  .11277 1.1053 147.9 20.3 1137  26
2026 09 06 03  21 28 24.598   -31 00 09.36  .11348 1.1058 147.8 20.4 1270  25
2026 09 06 04  21 28 35.536   -31 08 56.53  .11418 1.1063 147.7 20.4 1412  25
2026 09 06 05  21 28 46.380   -31 17 37.08  .11489 1.1068 147.6 20.4 1562  25
2026 09 06 06  21 28 57.130   -31 26 11.12  .11560 1.1073 147.5 20.4 1721  25
2026 09 06 07  21 29 07.787   -31 34 38.77  .11630 1.1078 147.4 20.4 1888  25
2026 09 06 08  21 29 18.353   -31 43 00.12  .11701 1.1083 147.3 20.4 2065  25
2026 09 06 09  21 29 28.829   -31 51 15.28  .11772 1.1088 147.2 20.5 2252  25
2026 09 06 10  21 29 39.217   -31 59 24.37  .11844 1.1093 147.1 20.5 2448  25
2026 09 06 11  21 29 49.517   -32 07 27.47  .11915 1.1098 147.0 20.5 2655  25
2026 09 06 12  21 29 59.730   -32 15 24.70  .11986 1.1103 146.9 20.5 2873  25
2026 09 06 13  21 30 09.859   -32 23 16.15  .12057 1.1108 146.8 20.5 3102  25
2026 09 06 14  21 30 19.903   -32 31 01.92  .12129 1.1113 146.6 20.5 3342  25
2026 09 06 15  21 30 29.864   -32 38 42.09  .12200 1.1118 146.5 20.6 3595  25
2026 09 06 16  21 30 39.744   -32 46 16.77  .12272 1.1123 146.4 20.6 3861  25
2026 09 06 17  21 30 49.543   -32 53 46.03  .12343 1.1128 146.3 20.6 4140  25
2026 09 06 18  21 30 59.262   -33 01 09.98  .12415 1.1133 146.2 20.6 4434  25
2026 09 06 19  21 31 08.902   -33 08 28.69  .12487 1.1138 146.1 20.6 4743  25
2026 09 06 20  21 31 18.465   -33 15 42.25  .12559 1.1143 146.0 20.6 5068  25
2026 09 06 21  21 31 27.952   -33 22 50.75  .12631 1.1148 145.9 20.6 5410  25
2026 09 06 22  21 31 37.362   -33 29 54.26  .12702 1.1153 145.8 20.7 5770  25
2026 09 06 23  21 31 46.698   -33 36 52.86  .12774 1.1158 145.7 20.7 6149  25
2026 09 07 00  21 31 55.961   -33 43 46.63  .12847 1.1163 145.6 20.7 6549  26
2026 09 07 01  21 32 05.151   -33 50 35.66  .12919 1.1168 145.5 20.7 6970  26
2026 09 07 02  21 32 14.269   -33 57 20.01  .12991 1.1173 145.4 20.7 7416  26
2026 09 07 03  21 32 23.316   -34 03 59.75  .13063 1.1178 145.4 20.7 7887  26
2026 09 07 04  21 32 32.293   -34 10 34.96  .13135 1.1183 145.3 20.8 8386  27
2026 09 07 05  21 32 41.201   -34 17 05.71  .13208 1.1188 145.2 20.8 8915  27
2026 09 07 06  21 32 50.041   -34 23 32.07  .13280 1.1193 145.1 20.8 9477  28
2026 09 07 07  21 32 58.813   -34 29 54.11  .13353 1.1198 145.0 20.8 168'  28
2026 09 07 08  21 33 07.519   -34 36 11.89  .13425 1.1203 144.9 20.8 179'  29
2026 09 07 09  21 33 16.160   -34 42 25.48  .13498 1.1208 144.8 20.8 190'  29
2026 09 07 10  21 33 24.735   -34 48 34.93  .13571 1.1213 144.7 20.8 202'  30
2026 09 07 11  21 33 33.247   -34 54 40.33  .13643 1.1218 144.6 20.9 215'  31